軌道要素
Epoch 2014 Dec. 9.0 TT = JDT 2457000.5
T 2014 Dec. 27.05516 TT MPCW
q 0.9759002 (2000.0) P Q
n 0.15132365 Peri. 347.55275 +0.99936923 -0.02159100
a 3.4876390 Node 13.77815 +0.03281060 +0.86513117
e 0.7201831 Incl. 6.79895 -0.01358682 +0.50108072
P 6.51
From 423 observations 2002 Jan. 27-2015 Jan. 1, mean residual 0".8.
Nongravitational parameters A1 = +0.47, A2 = +0.0060.
|